EDT,Max TemperatureF,Mean TemperatureF,Min TemperatureF,Max Dew PointF,MeanDew PointF,Min DewpointF,Max Humidity, Mean Humidity, Min Humidity, Max Sea Level PressureIn, Mean Sea Level PressureIn, Min Sea Level PressureIn, Max VisibilityMiles, Mean VisibilityMiles, Min VisibilityMiles, Max Wind SpeedMPH, Mean Wind SpeedMPH, Max Gust SpeedMPH,PrecipitationIn, CloudCover, Events, WindDirDegrees
2012-10-1,66,56,48,51,48,45,93,76,58,29.97,29.82,29.75,,,,21,14,34,0.00,,,244
2012-10-2,70,62,54,59,54,50,96,82,57,30.09,30.05,29.97,,,,13,9,,0.11,,,245
2012-10-3,62,60,59,60,58,57,97,95,90,30.19,30.12,30.06,,,,12,8,17,0.01,,,60
2012-10-4,61,59,57,59,58,57,97,96,93,30.19,30.14,30.07,,,,10,6,,0.06,,,29
2012-10-5,75,66,57,60,56,52,97,75,48,30.06,30.01,29.95,,,,14,8,,0.00,,,265
2012-10-6,77,63,48,60,56,43,96,77,53,29.96,29.85,29.74,,,,24,14,37,0.19,,,223
2012-10-7,57,50,44,46,41,37,93,75,57,30.09,30.05,29.96,,,,12,7,,0.12,,,255
2012-10-8,55,48,41,44,42,39,97,80,57,30.33,30.24,30.09,,,,10,6,,0.02,,,343
2012-10-9,57,52,50,49,45,41,93,78,66,30.32,30.24,30.15,,,,16,12,25,0.00,,,73
2012-10-10,60,56,51,59,54,46,97,95,83,30.14,29.94,29.76,,,,18,10,34,0.23,,,101
2012-10-11,57,48,42,42,36,33,82,61,42,30.16,30.06,29.85,,,,21,15,31,0.00,,,260
2012-10-12,52,44,36,40,32,23,89,63,44,30.39,30.15,30.03,,,,20,15,26,0.04,,,286
2012-10-13,52,40,30,30,24,21,79,52,33,30.49,30.42,30.35,,,,13,11,20,0.00,,,275
2012-10-14,66,54,44,54,46,31,92,75,58,30.34,30.13,29.98,,,,23,16,33,0.10,,,199
2012-10-15,73,66,59,61,58,54,93,80,61,29.96,29.77,29.63,,,,25,20,38,0.00,,,193
2012-10-16,61,53,41,61,41,33,97,69,45,29.90,29.69,29.58,,,,22,13,34,0.05,,,292
2012-10-17,60,48,36,41,35,30,86,66,32,30.03,29.97,29.91,,,,13,9,,0.00,,,311
2012-10-18,66,56,48,50,44,37,89,69,47,30.14,30.09,30.04,,,,15,8,,0.00,,,171
2012-10-19,66,59,52,65,57,51,97,88,60,30.09,29.94,29.76,,,,21,16,32,0.16,,,130
2012-10-20,73,64,55,64,57,42,97,78,38,29.79,29.71,29.64,,,,17,11,25,0.14,,,191
2012-10-21,63,54,46,41,39,36,76,59,40,29.91,29.87,29.79,,,,21,13,33,0.00,,,268
2012-10-22,64,55,46,42,40,39,77,60,41,30.03,29.95,29.91,,,,23,15,33,0.00,,,279
2012-10-23,64,54,46,43,41,39,77,61,43,30.14,30.09,30.04,,,,16,11,22,0.00,,,317
2012-10-24,54,51,48,40,38,35,71,63,54,30.25,30.19,30.15,,,,10,6,20,0.00,,,19
2012-10-25,63,54,46,43,38,29,77,57,31,30.33,30.29,30.25,,,,12,4,,0.00,,,170
2012-10-26,66,58,50,51,48,43,89,75,59,30.29,30.22,30.15,,,,13,9,,0.00,,,207
2012-10-27,64,58,51,53,50,45,96,85,65,30.14,30.07,30.03,,,,14,8,21,0.00,,,18
2012-10-28,54,51,48,51,50,48,97,93,83,30.02,29.93,29.76,,,,22,14,38,0.33,,,53
2012-10-29,61,56,51,60,55,50,97,96,93,29.74,29.43,29.21,,,,44,26,71,2.54,,,73
2012-10-30,66,60,53,59,56,51,97,89,65,29.59,29.52,29.35,,,,18,13,29,0.50,,,127
2012-10-31,55,50,46,54,47,39,96,83,71,29.59,29.55,29.49,,,,16,9,24,0.02,,,183